CAPE
4 3 3 3 1 0 0 0 0 0 0 0 0 0 0 0 0 0 0 0 0 0 0 0 0 0 0 0 0 0 0 0 0 0 0 0 0 0 0 0 0 0 0 0 0
4 2 2 1 2 0 0 0 0 0 0 0 0 0 0 0 0 0 0 0 0 0 0 0 0 0 0 0 0 0 0 0 0 0 0 0 0 0 0 0 0 0 0 0 0
2 1 1 1 0 0 0 0 0 0 0 0 0 0 0 0 0 0 0 0 0 0 0 0 0 0 0 0 0 0 0 0 0 0 0 0 0 0 0 0 0 0 0 0 0
1 1 1 0 0 0 0 0 0 0 0 0 0 0 0 0 0 0 0 0 0 0 0 0 0 0 0 0 0 0 0 0 0 0 0 0 0 0 0 0 0 0 0 0 0
0 0 1 1 0 0 0 0 0 0 0 0 0 0 0 0 0 0 0 0 0 0 0 0 0 0 0 0 0 0 0 0 0 0 0 0 0 0 0 0 0 0 0 0 0
0 0 0 0 0 0 0 0 0 0 0 0 0 0 0 0 0 0 0 0 0 0 0 0 0 0 0 0 0 0 0 0 0 0 0 0 0 0 0 0 0 0 0 0 0
0 0 0 0 0 0 0 0 0 0 0 0 0 0 0 0 0 0 0 0 0 0 0 0 0 0 0 0 0 0 0 0 0 0 0 0 0 0 0 0 0 0 0 0 0
0 0 0 0 0 0 0 0 0 0 0 0 0 0 0 0 0 0 0 0 0 0 0 0 0 0 0 0 0 0 0 0 0 0 0 0 0 0 0 0 0 0 0 0 0
1 0 0 0 0 1 0 0 0 0 0 0 0 0 0 0 0 0 0 0 0 0 0 0 0 0 0 0 0 0 0 0 0 0 0 0 0 0 0 0 0 0 0 0 0
2 1 0 0 0 0 0 0 0 0 0 0 0 0 0 0 0 0 0 0 0 0 0 0 0 0 0 0 0 0 0 0 0 0 0 0 0 0 0 0 0 0 0 0 0
1 0 0 0 0 0 0 0 0 0 0 0 0 0 0 0 0 0 0 0 0 0 0 0 0 0 0 0 0 0 0 0 0 0 0 0 0 0 0 0 0 0 0 0 0
6 0 0 0 0 0 0 0 0 0 0 0 0 0 0 0 0 0 0 0 0 0 0 0 0 0 0 0 0 0 0 0 0 0 0 0 0 0 0 0 0 0 0 0 0
13 1 0 0 0 0 0 0 0 0 0 0 0 0 0 0 0 0 0 0 0 0 0 0 0 0 0 0 0 0 0 0 0 0 0 0 0 0 0 0 0 0 0 0 0
7 11 2 0 0 0 0 0 0 0 0 0 0 0 0 0 0 0 0 0 0 0 0 0 0 0 0 0 0 0 0 0 0 0 0 0 0 0 0 0 0 0 0 0 0
11 4 17 0 0 0 0 0 0 0 0 0 0 0 0 0 0 0 0 0 0 0 0 0 0 0 0 0 0 0 0 0 0 0 0 0 0 0 0 0 0 0 0 0 0
27 10 1 0 0 0 0 0 0 0 0 0 0 0 0 0 0 0 0 0 0 0 0 0 0 0 0 0 0 0 0 0 0 0 0 0 0 0 0 0 0 0 0 0 0
42 14 1 0 0 0 0 0 0 0 0 0 0 0 0 0 0 0 0 0 0 0 0 0 0 0 0 0 0 0 0 0 0 0 0 0 0 0 0 0 0 0 0 0 0
44 7 0 4 0 0 0 0 0 0 0 0 0 0 0 0 0 0 0 0 0 0 0 0 0 0 0 0 0 0 0 0 0 0 0 0 0 0 0 0 0 0 0 0 0
50 2 0 0 0 0 0 0 0 0 0 0 0 0 0 0 0 0 0 0 0 0 0 0 0 0 0 0 0 0 0 0 0 0 0 0 0 0 0 0 0 0 0 0 0
28 8 7 0 0 0 0 1 0 0 0 0 0 0 0 0 0 0 0 0 0 0 0 0 0 0 0 0 0 0 0 0 0 0 0 0 0 0 0 0 0 0 0 0 0
48 69 21 0 0 3 0 0 0 0 0 0 0 0 0 0 0 0 0 0 0 0 0 0 0 0 0 0 0 0 0 0 0 0 0 0 0 0 0 0 0 0 0 0 0
23 45 8 0 1 0 0 0 0 0 0 0 0 0 0 0 0 0 0 0 0 0 0 0 0 0 0 0 0 0 0 0 0 0 0 0 0 0 0 0 0 0 0 0 0
25 23 21 31 4 0 0 0 0 0 0 0 0 0 0 0 0 0 0 0 0 0 0 0 0 0 0 0 0 0 0 0 0 0 0 0 0 0 0 0 0 0 0 0 0
64 57 40 103 33 7 5 0 0 0 0 0 0 0 0 0 0 0 0 0 0 0 0 0 0 0 0 0 0 0 0 0 0 0 0 0 0 0 0 0 0 0 0 0 0
35 54 46 40 70 8 7 6 6 5 0 0 0 0 0 0 0 0 0 0 0 0 0 0 0 0 0 0 0 0 0 0 0 0 0 0 0 0 0 0 0 0 0 0 0
40 59 70 22 29 38 9 27 39 24 9 0 0 0 0 0 0 0 0 0 0 0 0 0 0 0 0 0 0 0 0 0 0 0 0 0 0 0 0 0 0 0 0 0 0
3 28 49 37 35 25 28 34 47 16 2 17 1 0 0 0 0 0 0 0 0 0 0 0 0 0 0 0 0 0 0 0 0 0 0 0 0 0 0 0 0 0 0 0 0
CIN
0 0 0 0 0 0 0 0 0 0 0 0 0 0 0 0 0 0 0 0 0 0 0 0 0 0 0 0 0 0 0 0 0 0 0 0 0 0 0 0 0 0 0 0 0
0 0 0 0 0 0 0 0 0 0 0 0 0 0 0 0 0 0 0 0 0 0 0 0 0 0 0 0 0 0 0 0 0 0 0 0 0 0 0 0 0 0 0 0 0
0 0 0 0 0 0 0 0 0 0 0 0 0 0 0 0 0 0 0 0 0 0 0 0 0 0 0 0 0 0 0 0 0 0 0 0 0 0 0 0 0 0 0 0 0
0 0 0 0 0 0 0 0 0 0 0 0 0 0 0 0 0 0 0 0 0 0 0 0 0 0 0 0 0 0 0 0 0 0 0 0 0 0 0 0 0 0 0 0 0
0 0 0 0 0 0 0 0 0 0 0 0 0 0 0 0 0 0 0 0 0 0 0 0 0 0 0 0 0 0 0 0 0 0 0 0 0 0 0 0 0 0 0 0 0
0 0 0 0 0 0 0 0 0 0 0 0 0 0 0 0 0 0 0 0 0 0 0 0 0 0 0 0 0 0 0 0 0 0 0 0 0 0 0 0 0 0 0 0 0
0 0 0 0 0 0 0 0 0 0 0 0 0 0 0 0 0 0 0 0 0 0 0 0 0 0 0 0 0 0 0 0 0 0 0 0 0 0 0 0 0 0 0 0 0
0 0 0 0 0 0 0 0 0 0 0 0 0 0 0 0 0 0 0 0 0 0 0 0 0 0 0 0 0 0 0 0 0 0 0 0 0 0 0 0 0 0 0 0 0
0 0 0 0 0 0 0 0 0 0 0 0 0 0 0 0 0 0 0 0 0 0 0 0 0 0 0 0 0 0 0 0 0 0 0 0 0 0 0 0 0 0 0 0 0
0 0 0 0 0 0 0 0 0 0 0 0 0 0 0 0 0 0 0 0 0 0 0 0 0 0 0 0 0 0 0 0 0 0 0 0 0 0 0 0 0 0 0 0 0
0 0 0 0 0 0 0 0 0 0 0 0 0 0 0 0 0 0 0 0 0 0 0 0 0 0 0 0 0 0 0 0 0 0 0 0 0 0 0 0 0 0 0 0 0
0 0 0 0 0 0 0 0 0 0 0 0 0 0 0 0 0 0 0 0 0 0 0 0 0 0 0 0 0 0 0 0 0 0 0 0 0 0 0 0 0 0 0 0 0
0 0 0 0 0 0 0 0 0 0 0 0 0 0 0 0 0 0 0 0 0 0 0 0 0 0 0 0 0 0 0 0 0 0 0 0 0 0 0 0 0 0 0 0 0
0 0 -2 0 0 0 0 0 0 0 0 0 0 0 0 0 0 0 0 0 0 0 0 0 0 0 0 0 0 0 0 0 0 0 0 0 0 0 0 0 0 0 0 0 0
0 0 0 0 0 0 0 0 0 0 0 0 0 0 0 0 0 0 0 0 0 0 0 0 0 0 0 0 0 0 0 0 0 0 0 0 0 0 0 0 0 0 0 0 0
0 0 -1 0 0 0 0 0 0 0 0 0 0 0 0 0 0 0 0 0 0 0 0 0 0 0 0 0 0 0 0 0 0 0 0 0 0 0 0 0 0 0 0 0 0
0 -4 0 0 0 0 0 0 0 0 0 0 0 0 0 0 0 0 0 0 0 0 0 0 0 0 0 0 0 0 0 0 0 0 0 0 0 0 0 0 0 0 0 0 0
0 -2 0 -2 0 0 0 0 0 0 0 0 0 0 0 0 0 0 0 0 0 0 0 0 0 0 0 0 0 0 0 0 0 0 0 0 0 0 0 0 0 0 0 0 0
0 -1 0 0 0 0 0 0 0 0 0 0 0 0 0 0 0 0 0 0 0 0 0 0 0 0 0 0 0 0 0 0 0 0 0 0 0 0 0 0 0 0 0 0 0
-1 -7 -1 0 0 0 0 -2 0 0 0 0 0 0 0 0 0 0 0 0 0 0 0 0 0 0 0 0 0 0 0 0 0 0 0 0 0 0 0 0 0 0 0 0 0
-18 -1 -44 0 0 -3 0 0 0 0 0 0 0 0 0 0 0 0 0 0 0 0 0 0 0 0 0 0 0 0 0 0 0 0 0 0 0 0 0 0 0 0 0 0 0
-2 0 -13 0 0 0 0 0 0 0 0 0 0 0 0 0 0 0 0 0 0 0 0 0 0 0 0 0 0 0 0 0 0 0 0 0 0 0 0 0 0 0 0 0 0
0 -1 -41 -26 0 0 0 0 0 0 0 0 0 0 0 0 0 0 0 0 0 0 0 0 0 0 0 0 0 0 0 0 0 0 0 0 0 0 0 0 0 0 0 0 0
-1 0 -12 -3 -6 0 0 0 0 0 0 0 0 0 0 0 0 0 0 0 0 0 0 0 0 0 0 0 0 0 0 0 0 0 0 0 0 0 0 0 0 0 0 0 0
-1 -1 -4 -4 -9 0 0 0 0 0 0 0 0 0 0 0 0 0 0 0 0 0 0 0 0 0 0 0 0 0 0 0 0 0 0 0 0 0 0 0 0 0 0 0 0
0 0 0 0 0 0 0 0 0 0 0 0 0 0 0 0 0 0 0 0 0 0 0 0 0 0 0 0 0 0 0 0 0 0 0 0 0 0 0 0 0 0 0 0 0
-3 0 -1 0 0 0 0 0 0 0 0 0 0 0 0 0 0 0 0 0 0 0 0 0 0 0 0 0 0 0 0 0 0 0 0 0 0 0 0 0 0 0 0 0 0
Wind_Speed
14 13 11 10 7 7 9 9 8 8 9 8 9 8 8 9 7 1 3 5 3 8 5 4 2 3 4 4 4 3 5 3 6 7 4 5 5 1 2 6 1 2 3 0 19
15 14 14 12 10 8 8 10 11 9 8 10 9 9 9 9 3 3 3 3 5 3 3 3 2 4 4 3 4 5 4 8 5 5 5 6 4 8 5 4 3 2 5 14 17
17 14 14 14 13 11 9 8 10 11 9 7 8 8 8 4 3 5 2 4 3 3 3 2 2 3 3 3 3 2 4 3 4 3 4 6 3 4 7 4 7 9 13 16 16
18 17 14 12 12 14 13 9 8 10 9 8 8 8 8 1 5 3 1 2 2 5 3 2 2 3 3 2 0 2 2 3 3 4 5 7 6 4 6 4 2 9 20 17 16
18 17 17 14 11 11 13 12 11 9 9 8 7 7 3 1 9 3 1 2 5 5 4 4 3 4 4 4 2 3 4 2 1 5 3 7 3 4 6 3 5 15 16 17 15
19 18 16 16 14 10 10 11 10 10 7 8 6 4 1 5 3 2 1 4 3 4 4 4 6 4 5 3 2 2 2 2 2 3 4 5 2 2 3 7 10 16 16 15 16
21 19 19 17 15 15 10 9 10 9 7 8 5 1 1 12 2 1 3 2 3 4 4 2 6 3 4 4 3 4 3 2 3 4 3 4 5 11 5 8 12 13 13 13 13
22 21 19 19 18 16 14 10 8 8 8 5 3 1 8 2 3 2 1 3 2 2 3 4 5 7 4 4 5 3 3 2 2 6 2 5 8 3 8 12 13 13 11 13 14
21 21 22 22 20 19 15 13 10 8 6 3 2 3 9 3 3 4 2 3 3 3 4 4 6 5 3 6 3 4 4 5 4 8 4 7 7 1 6 8 11 12 13 13 12
18 20 21 23 23 22 18 6 2 2 2 3 0 2 3 5 3 4 1 5 3 4 4 3 5 4 3 4 6 7 5 4 5 5 3 4 16 6 6 8 13 13 12 14 15
16 17 20 22 23 24 10 2 4 4 3 11 9 5 3 2 2 1 3 5 4 3 5 0 3 9 13 8 4 6 4 4 3 3 4 8 14 14 10 10 11 12 14 15 16
17 17 18 21 24 16 5 4 3 4 8 10 5 5 3 5 3 4 4 7 6 7 5 3 10 8 3 6 5 4 4 5 3 2 2 4 16 14 12 14 19 19 17 17 13
19 17 17 20 21 4 4 3 3 5 2 8 7 6 6 8 7 9 11 5 5 7 8 8 3 8 6 5 6 4 6 4 4 0 1 6 10 9 3 5 7 15 16 16 19
25 21 17 20 4 4 4 1 1 2 1 9 6 6 4 6 5 3 8 6 3 12 9 7 3 7 4 5 6 4 5 5 4 3 4 1 9 7 3 6 8 13 14 15 15
23 23 22 7 3 3 3 2 3 3 2 4 3 0 3 7 7 2 1 3 8 8 8 7 9 6 4 5 7 4 4 5 3 4 3 1 2 5 2 8 9 13 14 13 14
22 22 23 1 1 6 2 2 4 6 12 4 5 5 4 2 3 4 3 5 4 5 2 1 0 4 6 4 2 9 6 6 4 3 2 5 5 7 5 5 4 2 12 13 13
25 24 19 3 4 1 5 2 3 7 3 6 6 6 3 5 4 6 7 6 8 6 6 1 4 2 4 7 4 3 5 1 3 0 7 3 2 13 5 5 3 2 6 11 12
26 28 6 7 5 4 3 2 8 6 10 2 4 4 9 9 5 6 6 6 7 3 4 8 6 11 7 6 9 7 6 7 8 5 3 2 9 9 4 1 2 1 2 9 12
26 5 6 5 7 4 3 7 10 10 6 9 3 4 7 6 7 5 7 6 10 13 10 7 5 2 2 3 5 7 6 3 7 3 2 5 8 10 3 4 3 4 4 8 11
10 10 10 13 12 6 6 18 10 8 8 5 10 8 8 7 8 9 10 7 6 13 2 7 3 1 1 2 2 4 4 4 1 5 6 4 5 10 4 7 6 5 6 7 8
3 6 4 3 9 6 12 13 14 11 6 10 9 6 6 7 7 6 6 5 6 5 3 7 6 0 3 9 10 4 4 1 3 4 6 2 8 7 6 6 11 9 7 9 10
5 6 1 4 5 4 11 8 5 4 4 6 4 8 10 9 8 6 10 7 6 11 10 5 6 6 8 2 3 3 7 7 6 6 1 2 10 3 5 3 7 9 8 7 8
7 8 3 3 5 8 5 10 14 7 7 8 9 6 4 9 4 9 7 0 7 9 11 10 5 4 1 1 2 6 6 4 5 4 8 7 9 2 2 3 5 8 7 6 9
6 6 5 3 4 5 5 13 14 7 26 7 5 6 4 7 6 5 7 1 5 4 2 5 4 8 11 6 7 7 8 10 7 4 5 10 7 6 6 7 6 7 8 9 9
4 5 4 5 5 9 6 6 10 11 7 6 6 16 17 11 5 7 3 3 1 5 3 5 5 4 4 3 4 6 8 18 19 19 11 12 13 24 12 14 12 8 9 11 11
6 4 3 10 11 5 6 5 10 14 8 11 15 18 19 21 20 16 8 5 6 3 6 2 3 3 3 4 5 5 5 14 20 17 16 12 15 7 3 7 7 10 11 13 13
2 6 5 7 6 5 6 4 8 19 11 13 17 18 10 22 17 7 7 4 1 9 10 8 7 4 5 3 2 9 16 18 8 9 16 12 20 8 6 8 11 12 14 14 14
Wind_Direction
7 356 348 337 324 310 303 296 295 303 311 316 323 328 330 328 312 316 235 221 257 309 333 276 45 14 49 78 60 142 75 178 200 155 217 169 136 185 94 125 163 93 143 75 138
15 3 350 342 329 319 307 302 299 295 302 312 320 325 331 337 336 282 236 288 302 329 41 54 42 21 44 43 22 83 118 213 185 185 183 178 166 162 151 145 191 115 58 131 140
11 11 358 345 333 321 308 302 303 302 300 305 313 318 321 316 327 229 191 316 308 90 100 81 90 67 73 42 12 113 185 178 206 196 152 153 142 173 144 214 198 189 157 155 155
7 4 2 354 338 324 314 303 293 295 297 302 313 320 324 305 247 199 324 325 262 136 117 96 77 78 96 168 190 150 170 181 161 150 141 167 132 191 200 215 258 171 161 157 166
2 2 357 352 345 329 314 307 299 292 295 299 313 317 325 353 251 165 30 47 111 137 163 155 149 135 168 142 121 147 186 161 130 144 109 131 182 230 230 167 105 137 156 168 171
356 353 355 350 341 332 317 302 296 293 288 293 301 317 213 240 162 101 119 129 121 149 160 152 179 164 113 117 159 109 106 102 155 162 150 162 213 136 221 136 141 156 171 175 177
351 350 342 343 340 328 316 302 290 276 283 294 298 198 232 241 165 121 92 133 150 163 154 169 133 88 127 101 152 125 82 3 215 196 217 133 267 232 161 154 162 177 177 179 184
347 343 340 333 331 327 314 295 273 273 268 260 256 175 245 199 160 140 119 109 87 98 105 133 108 103 87 114 35 81 56 164 215 154 213 137 261 265 170 161 182 183 181 185 189
343 341 336 333 329 323 309 297 278 253 230 172 157 188 265 133 179 174 162 167 110 79 66 95 68 99 83 105 39 360 217 209 292 197 149 184 266 236 167 182 188 191 189 190 187
341 339 336 333 330 329 307 271 298 96 84 145 336 6 250 227 168 145 102 143 143 122 91 66 62 94 65 126 212 197 216 232 231 210 191 215 256 247 196 195 205 197 194 193 191
335 337 335 334 331 330 320 45 23 314 243 195 193 211 165 125 110 194 156 123 113 117 165 176 142 203 201 189 149 138 183 219 230 172 192 232 261 253 212 211 213 204 197 199 201
329 331 334 333 329 329 305 147 178 153 300 236 230 263 201 174 139 221 135 153 157 188 128 77 232 216 140 162 154 161 183 234 275 161 201 339 279 266 207 224 207 200 201 201 190
325 326 330 331 326 29 324 275 144 149 239 281 199 191 190 146 211 204 154 164 162 151 190 174 236 126 132 151 160 197 182 188 214 21 294 336 273 258 251 234 213 213 205 199 194
343 324 328 334 45 341 282 194 210 195 32 264 230 253 126 144 242 163 189 150 172 190 159 229 156 149 148 185 143 201 178 126 129 107 239 10 287 290 243 258 224 214 199 195 189
341 342 328 326 254 325 274 118 286 21 319 231 196 275 155 170 139 231 165 98 174 173 135 229 163 157 165 204 170 206 106 110 100 103 7 257 271 258 9 270 237 218 209 197 190
337 331 331 294 271 246 35 38 45 48 246 204 141 178 141 208 167 138 142 56 133 112 35 95 250 177 178 78 74 146 80 54 58 84 281 199 185 282 212 224 296 219 198 190 180
327 324 315 235 254 313 88 61 61 192 280 206 190 160 190 186 199 172 163 177 162 126 209 125 208 159 134 91 28 94 110 304 332 95 227 145 171 255 251 216 211 326 204 184 178
326 315 269 237 237 157 92 293 197 218 219 92 132 112 180 159 221 187 146 194 235 120 116 162 274 168 179 187 173 187 178 167 210 200 231 63 235 252 188 195 172 160 190 169 172
327 300 276 243 184 165 120 195 221 182 194 157 92 171 217 202 171 149 208 220 197 179 180 157 259 21 37 138 143 186 203 156 104 54 40 214 283 288 197 219 206 161 154 175 175
317 298 260 234 159 167 166 225 228 199 139 151 193 175 199 196 167 180 174 210 217 189 156 199 115 326 158 103 44 172 163 99 20 181 236 264 267 244 240 216 210 200 184 166 151
262 289 297 28 155 204 201 220 225 249 176 163 199 199 205 187 187 203 210 260 199 131 120 145 121 320 136 210 177 146 202 105 135 174 185 230 253 208 206 192 194 201 190 167 160
293 283 307 57 211 198 232 226 208 250 204 239 179 186 186 180 193 216 216 241 149 145 168 189 119 170 197 257 188 185 192 174 155 206 232 160 271 184 198 205 188 191 181 161 146
299 284 267 136 249 228 273 258 235 239 214 192 208 219 195 184 221 197 199 330 167 165 162 181 200 119 335 341 324 210 196 177 113 101 197 149 257 239 242 222 200 177 163 141 134
291 291 303 232 241 256 280 268 250 229 245 229 193 100 51 290 242 214 215 46 177 195 114 124 170 190 199 187 132 194 191 179 155 146 189 222 253 229 215 208 198 174 157 151 148
269 270 305 338 305 338 318 300 304 298 224 236 219 213 206 230 243 212 163 148 152 192 135 158 223 202 241 149 174 199 183 184 200 217 200 245 212 247 196 201 196 175 141 146 154
281 284 322 296 295 278 330 314 307 294 279 285 236 230 217 220 218 249 162 191 191 107 153 162 229 152 278 215 230 249 192 199 218 231 250 258 276 128 98 108 153 173 164 166 167
288 289 267 296 307 303 291 277 323 325 285 305 290 305 223 226 218 147 84 13 219 167 181 154 151 146 255 99 356 274 202 211 195 207 220 217 238 157 178 195 193 177 179 176 162